Location: Newark
(60.6561°N, 46.5772°E)
Time: 16:10:56
(UTC+00:00)

Tiros 1 - Visible Passes

Search period start: 21 October 2019 00:00
Search period end: 31 October 2019 00:00
Orbit: 630 x 664 km, 48.4° (Epoch: 21 October)

Date Brightness Start Highest point End Pass type
(mag) Time Alt. Az. Time Alt. Az. Time Alt. Az.
21 Oct 9.0 00:38:34 18° SSE 00:38:34 18° SSE 00:41:29 10° SE visible
21 Oct 9.1 02:16:14 10° SW 02:19:13 17° SSW 02:22:16 10° SSE visible
22 Oct 8.9 01:03:34 19° S 01:03:43 19° S 01:07:04 10° SE visible
22 Oct 9.4 02:42:25 10° SW 02:44:41 13° SSW 02:46:55 10° S visible
22 Oct 9.7 23:50:56 12° SE 23:50:56 12° SE 23:51:29 10° SE visible
23 Oct 9.0 01:28:36 17° SSW 01:29:15 17° SSW 01:32:20 10° SSE visible
24 Oct 9.5 00:16:00 14° SSE 00:16:00 14° SSE 00:17:06 10° SE visible
24 Oct 9.2 01:53:40 13° SW 01:54:43 14° SSW 01:57:05 10° S visible
25 Oct 9.4 00:41:07 14° SSE 00:41:07 14° SSE 00:42:24 10° SSE visible
26 Oct 9.4 01:06:18 12° S 01:06:18 12° S 01:07:13 10° S visible
